Doylestown, PA

11:33 PM EDT on September 21, 2017 (GMT -0400)
Doylestown

Weather History for KDYL - February, 2013

Change the Weather History Date:

Tuesday, February 12, 2013

  Actual Average (KTTN) Record (KTTN)
Temperature  
Mean Temperature 36 °F -  
Max Temperature 44 °F 40 °F 68 °F (1999)
Min Temperature 28 °F 23 °F -2 °F (1907)
Degree Days  
Heating Degree Days 29    
Moisture  
Dew Point 24 °F    
Average Humidity 57    
Maximum Humidity 75    
Minimum Humidity 45    
Precipitation  
Precipitation 0.00 in - - ()
Sea Level Pressure  
Sea Level Pressure 29.91 in    
Wind  
Wind Speed 10 mph (WNW)    
Max Wind Speed 17 mph    
Max Gust Speed 31 mph    
Visibility 10 miles    
Events      
Averages and records for this station are not official NWS values.
T = Trace of Precipitation, MM = Missing Value Source: NWS Daily Summary

Daily Weather History Graph

Daily Weather History Graph

Search for Another Location

Airport or City:

Trip Planner

Search our weather history database for the weather conditions in past years. The results will help you decide how hot, cold, wet, or windy it might be!

Date:

Astronomy

Feb. 12, 2013 Rise Set
Actual Time 6:57 AM EST 5:32 PM EST
Civil Twilight 6:29 AM EST 6:00 PM EST
Nautical Twilight 5:57 AM EST 6:32 PM EST
Astronomical Twilight 5:25 AM EST 7:04 PM EST
Moon 7:52 AM EST (2/12) 8:31 PM EST (2/12)
Length of Visible Light 11h 31m
Length of Day
10h 35m
Waxing Crescent, 7% of the Moon is Illuminated
Feb 12
Waxing Crescent
Feb 17
First Quarter
Feb 25
Full
Mar 4
Last Quarter
Mar 11
New

Hourly Weather History & Observations

Time (EST) Temp. Windchill Dew Point Humidity Pressure Visibility Wind Dir Wind Speed Gust Speed Precip Events Conditions
12:54 AM 39.9 °F 33.9 °F 30.0 °F 68% 29.78 in 10.0 mi WNW 9.2 mph 18.4 mph N/A   Clear
1:54 AM 39.0 °F 33.4 °F 27.0 °F 62% 29.79 in 10.0 mi WNW 8.1 mph - N/A   Clear
2:54 AM 39.9 °F 31.8 °F 26.1 °F 58% 29.80 in 10.0 mi WNW 15.0 mph 26.5 mph N/A   Clear
3:54 AM 39.0 °F 29.9 °F 25.0 °F 57% 29.82 in 10.0 mi WNW 17.3 mph 29.9 mph N/A   Scattered Clouds
4:54 AM 39.0 °F 29.9 °F 24.1 °F 55% 29.84 in 10.0 mi WNW 17.3 mph 31.1 mph N/A   Overcast
5:54 AM 37.9 °F 32.1 °F 23.0 °F 55% 29.85 in 10.0 mi West 8.1 mph 20.7 mph N/A   Partly Cloudy
6:54 AM 37.9 °F 30.9 °F 23.0 °F 55% 29.88 in 10.0 mi WNW 10.4 mph - N/A   Overcast
7:54 AM 37.9 °F 31.5 °F 23.0 °F 55% 29.90 in 10.0 mi West 9.2 mph 17.3 mph N/A   Overcast
8:54 AM 39.0 °F 34.8 °F 24.1 °F 55% 29.91 in 10.0 mi West 5.8 mph 19.6 mph N/A   Overcast
9:54 AM 42.1 °F 35.7 °F 25.0 °F 51% 29.92 in 10.0 mi West 11.5 mph 21.9 mph N/A   Mostly Cloudy
10:54 AM 42.1 °F 33.9 °F 23.0 °F 47% 29.94 in 10.0 mi WNW 17.3 mph 29.9 mph N/A   Scattered Clouds
11:54 AM 41.0 °F 32.8 °F 23.0 °F 49% 29.95 in 10.0 mi NW 16.1 mph 25.3 mph N/A   Scattered Clouds
12:54 PM 44.1 °F 37.7 °F 24.1 °F 45% 29.94 in 10.0 mi WNW 12.7 mph 24.2 mph N/A   Scattered Clouds
1:54 PM 43.0 °F 35.4 °F 23.0 °F 45% 29.94 in 10.0 mi West 16.1 mph 24.2 mph N/A   Clear
2:54 PM 41.0 °F 34.7 °F 23.0 °F 49% 29.92 in 10.0 mi NW 10.4 mph 20.7 mph N/A   Partly Cloudy
3:54 PM 41.0 °F 34.7 °F 23.0 °F 49% 29.86 in 10.0 mi NNW 10.4 mph - N/A   Clear
4:54 PM 39.0 °F 34.0 °F 23.0 °F 53% 29.96 in - West 6.9 mph - N/A   Unknown
5:54 PM 37.0 °F 30.4 °F 23.0 °F 57% 29.98 in 10.0 mi WNW 9.2 mph - N/A   Partly Cloudy
6:54 PM 35.1 °F 32.2 °F 21.9 °F 59% 30.00 in 10.0 mi West 3.5 mph - N/A   Clear
7:54 PM 35.1 °F 29.3 °F 21.9 °F 59% 29.98 in 10.0 mi NW 6.9 mph - N/A   Clear
8:54 PM 34.0 °F 31.0 °F 21.9 °F 61% 29.95 in 10.0 mi Variable 3.5 mph - N/A   Clear
9:54 PM 30.9 °F - 21.0 °F 67% 29.95 in 10.0 mi Calm Calm - N/A   Clear
10:54 PM 28.9 °F 23.9 °F 21.9 °F 75% 29.96 in 10.0 mi SW 4.6 mph - N/A   Clear
11:54 PM 30.0 °F - 21.9 °F 72% 29.96 in 10.0 mi Calm Calm - N/A   Clear